owner,sensor,date,latitude,longitude,vertical_datum,wind_speed,wind_to_direction,wind_speed_of_gust,qcFlag 
WAVCIS,ioos:station:WAVCIS:CSI15:1,2009-11-01T00:00:00Z,28.8332,-90.8320,10.0,8.89,317.0,,'11111222,11111222,99999999' 
WAVCIS,ioos:station:WAVCIS:CSI15:1,2009-11-01T01:00:00Z,28.8332,-90.8320,10.0,9.43,325.0,,'11111222,11111222,99999999' 
WAVCIS,ioos:station:WAVCIS:CSI15:1,2009-11-01T02:00:00Z,28.8332,-90.8320,10.0,9.66,334.0,,'11111222,11111222,99999999' 
WAVCIS,ioos:station:WAVCIS:CSI15:1,2009-11-01T03:00:00Z,28.8332,-90.8320,10.0,9.53,338.0,,'11111222,11111222,99999999' 
WAVCIS,ioos:station:WAVCIS:CSI15:1,2009-11-01T04:00:00Z,28.8332,-90.8320,10.0,9.93,340.0,,'11111222,11111222,99999999' 
WAVCIS,ioos:station:WAVCIS:CSI15:1,2009-11-01T05:00:00Z,28.8332,-90.8320,10.0,9.78,340.0,,'11111222,11111222,99999999' 
WAVCIS,ioos:station:WAVCIS:CSI15:1,2009-11-01T06:00:00Z,28.8332,-90.8320,10.0,9.69,351.0,,'11111222,11111222,99999999' 
WAVCIS,ioos:station:WAVCIS:CSI15:1,2009-11-01T07:00:00Z,28.8332,-90.8320,10.0,8.33,3.0,,'11111222,11111222,99999999' 
WAVCIS,ioos:station:WAVCIS:CSI15:1,2009-11-01T08:00:00Z,28.8332,-90.8320,10.0,8.82,6.0,,'11111222,11111222,99999999' 
WAVCIS,ioos:station:WAVCIS:CSI15:1,2009-11-01T09:00:00Z,28.8332,-90.8320,10.0,8.71,0.0,,'11111222,11111222,99999999' 
WAVCIS,ioos:station:WAVCIS:CSI15:1,2009-11-01T10:00:00Z,28.8332,-90.8320,10.0,8.62,356.0,,'11111222,11111222,99999999' 
WAVCIS,ioos:station:WAVCIS:CSI15:1,2009-11-01T11:00:00Z,28.8332,-90.8320,10.0,7.87,3.0,,'11111222,11111222,99999999' 
WAVCIS,ioos:station:WAVCIS:CSI15:1,2009-11-01T12:00:00Z,28.8332,-90.8320,10.0,8.32,353.0,,'11111222,11111222,99999999' 
WAVCIS,ioos:station:WAVCIS:CSI15:1,2009-11-01T13:00:00Z,28.8332,-90.8320,10.0,6.515,0.0,,'11111222,11111222,99999999' 
WAVCIS,ioos:station:WAVCIS:CSI15:1,2009-11-01T14:00:00Z,28.8332,-90.8320,10.0,7.0,7.0,,'11111222,11111222,99999999' 
WAVCIS,ioos:station:WAVCIS:CSI15:1,2009-11-01T15:00:00Z,28.8332,-90.8320,10.0,7.4,17.0,,'11111222,11111222,99999999' 
WAVCIS,ioos:station:WAVCIS:CSI15:1,2009-11-01T16:00:00Z,28.8332,-90.8320,10.0,7.47,21.0,,'11111222,11111222,99999999' 
WAVCIS,ioos:station:WAVCIS:CSI15:1,2009-11-01T17:00:00Z,28.8332,-90.8320,10.0,7.21,25.0,,'11111222,11111222,99999999' 
WAVCIS,ioos:station:WAVCIS:CSI15:1,2009-11-01T18:00:00Z,28.8332,-90.8320,10.0,7.43,24.0,,'11111222,11111222,99999999' 
WAVCIS,ioos:station:WAVCIS:CSI15:1,2009-11-01T19:00:00Z,28.8332,-90.8320,10.0,6.928,16.0,,'11111222,11111222,99999999' 
WAVCIS,ioos:station:WAVCIS:CSI15:1,2009-11-01T20:00:00Z,28.8332,-90.8320,10.0,7.07,20.0,,'11111222,11111222,99999999' 
WAVCIS,ioos:station:WAVCIS:CSI15:1,2009-11-01T21:00:00Z,28.8332,-90.8320,10.0,5.874,11.0,,'11111222,11111222,99999999' 
WAVCIS,ioos:station:WAVCIS:CSI15:1,2009-11-01T22:00:00Z,28.8332,-90.8320,10.0,4.225,18.0,,'11111222,11111222,99999999' 
WAVCIS,ioos:station:WAVCIS:CSI15:1,2009-11-01T23:00:00Z,28.8332,-90.8320,10.0,5.011,8.0,,'11111222,11111222,99999999' 
WAVCIS,ioos:station:WAVCIS:CSI15:1,2009-11-02T00:00:00Z,28.8332,-90.8320,10.0,4.649,9.0,,'11111222,11111222,99999999' 
WAVCIS,ioos:station:WAVCIS:CSI15:1,2009-11-02T01:00:00Z,28.8332,-90.8320,10.0,3.878,4.0,,'11111222,11111222,99999999' 
WAVCIS,ioos:station:WAVCIS:CSI15:1,2009-11-02T02:00:00Z,28.8332,-90.8320,10.0,4.81,331.0,,'11111222,11111222,99999999' 
WAVCIS,ioos:station:WAVCIS:CSI15:1,2009-11-02T03:00:00Z,28.8332,-90.8320,10.0,4.666,335.0,,'11111222,11111222,99999999' 
WAVCIS,ioos:station:WAVCIS:CSI15:1,2009-11-02T04:00:00Z,28.8332,-90.8320,10.0,5.709,328.0,,'11111222,11111222,99999999' 
WAVCIS,ioos:station:WAVCIS:CSI15:1,2009-11-02T05:00:00Z,28.8332,-90.8320,10.0,5.606,320.0,,'11111222,11111222,99999999' 
WAVCIS,ioos:station:WAVCIS:CSI15:1,2009-11-02T06:00:00Z,28.8332,-90.8320,10.0,7.24,345.0,,'11111222,11111222,99999999' 
WAVCIS,ioos:station:WAVCIS:CSI15:1,2009-11-02T07:00:00Z,28.8332,-90.8320,10.0,6.602,359.0,,'11111222,11111222,99999999' 
WAVCIS,ioos:station:WAVCIS:CSI15:1,2009-11-02T08:00:00Z,28.8332,-90.8320,10.0,6.855,9.0,,'11111222,11111222,99999999' 
WAVCIS,ioos:station:WAVCIS:CSI15:1,2009-11-02T09:00:00Z,28.8332,-90.8320,10.0,7.15,14.0,,'11111222,11111222,99999999' 
WAVCIS,ioos:station:WAVCIS:CSI15:1,2009-11-02T10:00:00Z,28.8332,-90.8320,10.0,7.12,23.0,,'11111222,11111222,99999999' 
WAVCIS,ioos:station:WAVCIS:CSI15:1,2009-11-02T11:00:00Z,28.8332,-90.8320,10.0,6.543,18.0,,'11111222,11111222,99999999' 
WAVCIS,ioos:station:WAVCIS:CSI15:1,2009-11-02T12:00:00Z,28.8332,-90.8320,10.0,6.536,22.0,,'11111222,11111222,99999999' 
WAVCIS,ioos:station:WAVCIS:CSI15:1,2009-11-02T13:00:00Z,28.8332,-90.8320,10.0,6.366,25.0,,'11111222,11111222,99999999' 
WAVCIS,ioos:station:WAVCIS:CSI15:1,2009-11-02T14:00:00Z,28.8332,-90.8320,10.0,6.155,18.0,,'11111222,11111222,99999999' 
WAVCIS,ioos:station:WAVCIS:CSI15:1,2009-11-02T15:00:00Z,28.8332,-90.8320,10.0,6.157,17.0,,'11111222,11111222,99999999' 
WAVCIS,ioos:station:WAVCIS:CSI15:1,2009-11-02T16:00:00Z,28.8332,-90.8320,10.0,5.751,11.0,,'11111222,11111222,99999999' 
WAVCIS,ioos:station:WAVCIS:CSI15:1,2009-11-02T17:00:00Z,28.8332,-90.8320,10.0,5.267,8.0,,'11111222,11111222,99999999' 
WAVCIS,ioos:station:WAVCIS:CSI15:1,2009-11-02T18:00:00Z,28.8332,-90.8320,10.0,4.658,7.0,,'11111222,11111222,99999999' 
WAVCIS,ioos:station:WAVCIS:CSI15:1,2009-11-02T19:00:00Z,28.8332,-90.8320,10.0,4.879,10.0,,'11111222,11111222,99999999' 
WAVCIS,ioos:station:WAVCIS:CSI15:1,2009-11-02T20:00:00Z,28.8332,-90.8320,10.0,3.89,13.0,,'11111222,11111222,99999999' 
WAVCIS,ioos:station:WAVCIS:CSI15:1,2009-11-02T21:00:00Z,28.8332,-90.8320,10.0,4.425,18.0,,'11111222,11111222,99999999' 
WAVCIS,ioos:station:WAVCIS:CSI15:1,2009-11-02T22:00:00Z,28.8332,-90.8320,10.0,2.284,35.0,,'11111222,11111222,99999999' 
WAVCIS,ioos:station:WAVCIS:CSI15:1,2009-11-02T23:00:00Z,28.8332,-90.8320,10.0,3.321,31.0,,'11111222,11111222,99999999' 
WAVCIS,ioos:station:WAVCIS:CSI15:1,2009-11-03T00:00:00Z,28.8332,-90.8320,10.0,3.268,32.0,,'11111222,11111222,99999999' 
WAVCIS,ioos:station:WAVCIS:CSI15:1,2009-11-03T01:00:00Z,28.8332,-90.8320,10.0,4.291,27.0,,'11111222,11111222,99999999' 
WAVCIS,ioos:station:WAVCIS:CSI15:1,2009-11-03T02:00:00Z,28.8332,-90.8320,10.0,6.362,21.0,,'11111222,11111222,99999999' 
WAVCIS,ioos:station:WAVCIS:CSI15:1,2009-11-03T03:00:00Z,28.8332,-90.8320,10.0,5.584,11.0,,'11111222,11111222,99999999' 
WAVCIS,ioos:station:WAVCIS:CSI15:1,2009-11-03T04:00:00Z,28.8332,-90.8320,10.0,6.692,6.0,,'11111222,11111222,99999999' 
WAVCIS,ioos:station:WAVCIS:CSI15:1,2009-11-03T05:00:00Z,28.8332,-90.8320,10.0,6.435,3.0,,'11111222,11111222,99999999' 
WAVCIS,ioos:station:WAVCIS:CSI15:1,2009-11-03T06:00:00Z,28.8332,-90.8320,10.0,5.866,4.0,,'11111222,11111222,99999999' 
WAVCIS,ioos:station:WAVCIS:CSI15:1,2009-11-03T07:00:00Z,28.8332,-90.8320,10.0,6.707,0.0,,'11111222,11111222,99999999' 
WAVCIS,ioos:station:WAVCIS:CSI15:1,2009-11-03T08:00:00Z,28.8332,-90.8320,10.0,6.271,9.0,,'11111222,11111222,99999999' 
WAVCIS,ioos:station:WAVCIS:CSI15:1,2009-11-03T09:00:00Z,28.8332,-90.8320,10.0,6.663,26.0,,'11111222,11111222,99999999' 
WAVCIS,ioos:station:WAVCIS:CSI15:1,2009-11-03T10:00:00Z,28.8332,-90.8320,10.0,6.927,21.0,,'11111222,11111222,99999999' 
WAVCIS,ioos:station:WAVCIS:CSI15:1,2009-11-03T11:00:00Z,28.8332,-90.8320,10.0,7.49,17.0,,'11111222,11111222,99999999' 
WAVCIS,ioos:station:WAVCIS:CSI15:1,2009-11-03T12:00:00Z,28.8332,-90.8320,10.0,6.84,23.0,,'11111222,11111222,99999999' 
WAVCIS,ioos:station:WAVCIS:CSI15:1,2009-11-03T13:00:00Z,28.8332,-90.8320,10.0,6.958,22.0,,'11111222,11111222,99999999' 
WAVCIS,ioos:station:WAVCIS:CSI15:1,2009-11-03T14:00:00Z,28.8332,-90.8320,10.0,7.85,13.0,,'11111222,11111222,99999999' 
WAVCIS,ioos:station:WAVCIS:CSI15:1,2009-11-03T15:00:00Z,28.8332,-90.8320,10.0,7.99,8.0,,'11111222,11111222,99999999' 
WAVCIS,ioos:station:WAVCIS:CSI15:1,2009-11-03T16:00:00Z,28.8332,-90.8320,10.0,8.2,17.0,,'11111222,11111222,99999999' 
WAVCIS,ioos:station:WAVCIS:CSI15:1,2009-11-03T17:00:00Z,28.8332,-90.8320,10.0,8.31,19.0,,'11111222,11111222,99999999' 
WAVCIS,ioos:station:WAVCIS:CSI15:1,2009-11-03T18:00:00Z,28.8332,-90.8320,10.0,8.68,31.0,,'11111222,11111222,99999999' 
WAVCIS,ioos:station:WAVCIS:CSI15:1,2009-11-03T19:00:00Z,28.8332,-90.8320,10.0,8.11,45.0,,'11111222,11111222,99999999' 
WAVCIS,ioos:station:WAVCIS:CSI15:1,2009-11-03T20:00:00Z,28.8332,-90.8320,10.0,8.01,53.0,,'11111222,11111222,99999999' 
WAVCIS,ioos:station:WAVCIS:CSI15:1,2009-11-03T21:00:00Z,28.8332,-90.8320,10.0,6.937,32.0,,'11111222,11111222,99999999' 
WAVCIS,ioos:station:WAVCIS:CSI15:1,2009-11-03T22:00:00Z,28.8332,-90.8320,10.0,6.294,31.0,,'11111222,11111222,99999999' 
WAVCIS,ioos:station:WAVCIS:CSI15:1,2009-11-03T23:00:00Z,28.8332,-90.8320,10.0,7.12,25.0,,'11111222,11111222,99999999' 
WAVCIS,ioos:station:WAVCIS:CSI15:1,2009-11-04T00:00:00Z,28.8332,-90.8320,10.0,7.29,21.0,,'11111222,11111222,99999999' 
WAVCIS,ioos:station:WAVCIS:CSI15:1,2009-11-04T01:00:00Z,28.8332,-90.8320,10.0,6.121,6.0,,'11111222,11111222,99999999' 
WAVCIS,ioos:station:WAVCIS:CSI15:1,2009-11-04T02:00:00Z,28.8332,-90.8320,10.0,5.858,2.0,,'11111222,11111222,99999999' 
WAVCIS,ioos:station:WAVCIS:CSI15:1,2009-11-04T03:00:00Z,28.8332,-90.8320,10.0,6.322,4.0,,'11111222,11111222,99999999' 
WAVCIS,ioos:station:WAVCIS:CSI15:1,2009-11-04T04:00:00Z,28.8332,-90.8320,10.0,5.566,8.0,,'11111222,11111222,99999999' 
WAVCIS,ioos:station:WAVCIS:CSI15:1,2009-11-04T05:00:00Z,28.8332,-90.8320,10.0,5.857,5.0,,'11111222,11111222,99999999' 
WAVCIS,ioos:station:WAVCIS:CSI15:1,2009-11-04T06:00:00Z,28.8332,-90.8320,10.0,6.345,14.0,,'11111222,11111222,99999999' 
WAVCIS,ioos:station:WAVCIS:CSI15:1,2009-11-04T07:00:00Z,28.8332,-90.8320,10.0,5.832,10.0,,'11111222,11111222,99999999' 
WAVCIS,ioos:station:WAVCIS:CSI15:1,2009-11-04T08:00:00Z,28.8332,-90.8320,10.0,6.859,3.0,,'11111222,11111222,99999999' 
WAVCIS,ioos:station:WAVCIS:CSI15:1,2009-11-04T09:00:00Z,28.8332,-90.8320,10.0,7.23,1.0,,'11111222,11111222,99999999' 
WAVCIS,ioos:station:WAVCIS:CSI15:1,2009-11-04T10:00:00Z,28.8332,-90.8320,10.0,7.16,0.0,,'11111222,11111222,99999999' 
WAVCIS,ioos:station:WAVCIS:CSI15:1,2009-11-04T11:00:00Z,28.8332,-90.8320,10.0,6.972,10.0,,'11111222,11111222,99999999' 
WAVCIS,ioos:station:WAVCIS:CSI15:1,2009-11-04T12:00:00Z,28.8332,-90.8320,10.0,7.6,11.0,,'11111222,11111222,99999999' 
WAVCIS,ioos:station:WAVCIS:CSI15:1,2009-11-04T13:00:00Z,28.8332,-90.8320,10.0,7.88,26.0,,'11111222,11111222,99999999' 
WAVCIS,ioos:station:WAVCIS:CSI15:1,2009-11-04T14:00:00Z,28.8332,-90.8320,10.0,7.4,24.0,,'11111222,11111222,99999999' 
WAVCIS,ioos:station:WAVCIS:CSI15:1,2009-11-04T15:00:00Z,28.8332,-90.8320,10.0,8.27,12.0,,'11111222,11111222,99999999' 
WAVCIS,ioos:station:WAVCIS:CSI15:1,2009-11-04T16:00:00Z,28.8332,-90.8320,10.0,7.5,22.0,,'11111222,11111222,99999999' 
WAVCIS,ioos:station:WAVCIS:CSI15:1,2009-11-04T17:00:00Z,28.8332,-90.8320,10.0,7.05,20.0,,'11111222,11111222,99999999' 
WAVCIS,ioos:station:WAVCIS:CSI15:1,2009-11-04T18:00:00Z,28.8332,-90.8320,10.0,7.15,15.0,,'11111222,11111222,99999999' 
WAVCIS,ioos:station:WAVCIS:CSI15:1,2009-11-04T19:00:00Z,28.8332,-90.8320,10.0,7.24,21.0,,'11111222,11111222,99999999' 
WAVCIS,ioos:station:WAVCIS:CSI15:1,2009-11-04T20:00:00Z,28.8332,-90.8320,10.0,7.26,22.0,,'11111222,11111222,99999999' 
WAVCIS,ioos:station:WAVCIS:CSI15:1,2009-11-04T21:00:00Z,28.8332,-90.8320,10.0,7.48,20.0,,'11111222,11111222,99999999' 
WAVCIS,ioos:station:WAVCIS:CSI15:1,2009-11-04T22:00:00Z,28.8332,-90.8320,10.0,7.02,26.0,,'11111222,11111222,99999999' 
WAVCIS,ioos:station:WAVCIS:CSI15:1,2009-11-04T23:00:00Z,28.8332,-90.8320,10.0,6.405,33.0,,'11111222,11111222,99999999' 
WAVCIS,ioos:station:WAVCIS:CSI15:1,2009-11-05T00:00:00Z,28.8332,-90.8320,10.0,6.12,35.0,,'11111222,11111222,99999999' 
WAVCIS,ioos:station:WAVCIS:CSI15:1,2009-11-05T01:00:00Z,28.8332,-90.8320,10.0,6.056,40.0,,'11111222,11111222,99999999' 
WAVCIS,ioos:station:WAVCIS:CSI15:1,2009-11-05T02:00:00Z,28.8332,-90.8320,10.0,6.241,42.0,,'11111222,11111222,99999999' 
WAVCIS,ioos:station:WAVCIS:CSI15:1,2009-11-05T03:00:00Z,28.8332,-90.8320,10.0,5.42,28.0,,'11111222,11111222,99999999' 
WAVCIS,ioos:station:WAVCIS:CSI15:1,2009-11-05T04:00:00Z,28.8332,-90.8320,10.0,5.055,30.0,,'11111222,11111222,99999999' 
WAVCIS,ioos:station:WAVCIS:CSI15:1,2009-11-05T05:00:00Z,28.8332,-90.8320,10.0,4.546,20.0,,'11111222,11111222,99999999' 
WAVCIS,ioos:station:WAVCIS:CSI15:1,2009-11-05T06:00:00Z,28.8332,-90.8320,10.0,4.47,9.0,,'11111222,11111222,99999999' 
WAVCIS,ioos:station:WAVCIS:CSI15:1,2009-11-05T07:00:00Z,28.8332,-90.8320,10.0,4.346,0.0,,'11111222,11111222,99999999' 
WAVCIS,ioos:station:WAVCIS:CSI15:1,2009-11-05T08:00:00Z,28.8332,-90.8320,10.0,5.263,0.0,,'11111222,11111222,99999999' 
WAVCIS,ioos:station:WAVCIS:CSI15:1,2009-11-05T09:00:00Z,28.8332,-90.8320,10.0,5.318,357.0,,'11111222,11111222,99999999' 
WAVCIS,ioos:station:WAVCIS:CSI15:1,2009-11-05T10:00:00Z,28.8332,-90.8320,10.0,7.39,1.0,,'11111222,11111222,99999999' 
WAVCIS,ioos:station:WAVCIS:CSI15:1,2009-11-05T11:00:00Z,28.8332,-90.8320,10.0,8.44,7.0,,'11111222,11111222,99999999' 
WAVCIS,ioos:station:WAVCIS:CSI15:1,2009-11-05T12:00:00Z,28.8332,-90.8320,10.0,8.6,4.0,,'11111222,11111222,99999999' 
WAVCIS,ioos:station:WAVCIS:CSI15:1,2009-11-05T13:00:00Z,28.8332,-90.8320,10.0,9.4,6.0,,'11111222,11111222,99999999' 
WAVCIS,ioos:station:WAVCIS:CSI15:1,2009-11-05T14:00:00Z,28.8332,-90.8320,10.0,9.08,16.0,,'11111222,11111222,99999999' 
WAVCIS,ioos:station:WAVCIS:CSI15:1,2009-11-05T15:00:00Z,28.8332,-90.8320,10.0,9.05,18.0,,'11111222,11111222,99999999' 
WAVCIS,ioos:station:WAVCIS:CSI15:1,2009-11-05T16:00:00Z,28.8332,-90.8320,10.0,8.66,24.0,,'11111222,11111222,99999999' 
WAVCIS,ioos:station:WAVCIS:CSI15:1,2009-11-05T17:00:00Z,28.8332,-90.8320,10.0,8.28,30.0,,'11111222,11111222,99999999' 
WAVCIS,ioos:station:WAVCIS:CSI15:1,2009-11-05T18:00:00Z,28.8332,-90.8320,10.0,10.26,31.0,,'11111222,11111222,99999999' 
WAVCIS,ioos:station:WAVCIS:CSI15:1,2009-11-05T19:00:00Z,28.8332,-90.8320,10.0,9.66,33.0,,'11111222,11111222,99999999' 
WAVCIS,ioos:station:WAVCIS:CSI15:1,2009-11-05T20:00:00Z,28.8332,-90.8320,10.0,9.35,43.0,,'11111222,11111222,99999999' 
WAVCIS,ioos:station:WAVCIS:CSI15:1,2009-11-05T21:00:00Z,28.8332,-90.8320,10.0,9.17,41.0,,'11111222,11111222,99999999' 
WAVCIS,ioos:station:WAVCIS:CSI15:1,2009-11-05T22:00:00Z,28.8332,-90.8320,10.0,9.96,32.0,,'11111222,11111222,99999999' 
WAVCIS,ioos:station:WAVCIS:CSI15:1,2009-11-05T23:00:00Z,28.8332,-90.8320,10.0,8.92,37.0,,'11111222,11111222,99999999' 
WAVCIS,ioos:station:WAVCIS:CSI15:1,2009-11-06T00:00:00Z,28.8332,-90.8320,10.0,8.33,37.0,,'11111222,11111222,99999999' 
WAVCIS,ioos:station:WAVCIS:CSI15:1,2009-11-06T01:00:00Z,28.8332,-90.8320,10.0,7.25,34.0,,'11111222,11111222,99999999' 
WAVCIS,ioos:station:WAVCIS:CSI15:1,2009-11-06T02:00:00Z,28.8332,-90.8320,10.0,7.04,40.0,,'11111222,11111222,99999999' 
WAVCIS,ioos:station:WAVCIS:CSI15:1,2009-11-06T03:00:00Z,28.8332,-90.8320,10.0,6.585,42.0,,'11111222,11111222,99999999' 
WAVCIS,ioos:station:WAVCIS:CSI15:1,2009-11-06T04:00:00Z,28.8332,-90.8320,10.0,7.2,40.0,,'11111222,11111222,99999999' 
WAVCIS,ioos:station:WAVCIS:CSI15:1,2009-11-06T05:00:00Z,28.8332,-90.8320,10.0,6.871,40.0,,'11111222,11111222,99999999' 
WAVCIS,ioos:station:WAVCIS:CSI15:1,2009-11-06T06:00:00Z,28.8332,-90.8320,10.0,7.05,36.0,,'11111222,11111222,99999999' 
WAVCIS,ioos:station:WAVCIS:CSI15:1,2009-11-06T07:00:00Z,28.8332,-90.8320,10.0,7.59,30.0,,'11111222,11111222,99999999' 
WAVCIS,ioos:station:WAVCIS:CSI15:1,2009-11-06T08:00:00Z,28.8332,-90.8320,10.0,7.34,29.0,,'11111222,11111222,99999999' 
WAVCIS,ioos:station:WAVCIS:CSI15:1,2009-11-06T09:00:00Z,28.8332,-90.8320,10.0,7.91,29.0,,'11111222,11111222,99999999' 
WAVCIS,ioos:station:WAVCIS:CSI15:1,2009-11-06T10:00:00Z,28.8332,-90.8320,10.0,7.83,28.0,,'11111222,11111222,99999999' 
WAVCIS,ioos:station:WAVCIS:CSI15:1,2009-11-06T11:00:00Z,28.8332,-90.8320,10.0,8.28,25.0,,'11111222,11111222,99999999' 
WAVCIS,ioos:station:WAVCIS:CSI15:1,2009-11-06T12:00:00Z,28.8332,-90.8320,10.0,7.95,37.0,,'11111222,11111222,99999999' 
WAVCIS,ioos:station:WAVCIS:CSI15:1,2009-11-06T13:00:00Z,28.8332,-90.8320,10.0,8.67,34.0,,'11111222,11111222,99999999' 
WAVCIS,ioos:station:WAVCIS:CSI15:1,2009-11-06T14:00:00Z,28.8332,-90.8320,10.0,8.91,28.0,,'11111222,11111222,99999999' 
WAVCIS,ioos:station:WAVCIS:CSI15:1,2009-11-06T15:00:00Z,28.8332,-90.8320,10.0,9.14,27.0,,'11111222,11111222,99999999' 
WAVCIS,ioos:station:WAVCIS:CSI15:1,2009-11-06T16:00:00Z,28.8332,-90.8320,10.0,9.27,33.0,,'11111222,11111222,99999999' 
WAVCIS,ioos:station:WAVCIS:CSI15:1,2009-11-06T17:00:00Z,28.8332,-90.8320,10.0,9.1,35.0,,'11111222,11111222,99999999' 
WAVCIS,ioos:station:WAVCIS:CSI15:1,2009-11-06T18:00:00Z,28.8332,-90.8320,10.0,9.3,35.0,,'11111222,11111222,99999999' 
WAVCIS,ioos:station:WAVCIS:CSI15:1,2009-11-06T19:00:00Z,28.8332,-90.8320,10.0,9.23,33.0,,'11111222,11111222,99999999' 
WAVCIS,ioos:station:WAVCIS:CSI15:1,2009-11-06T20:00:00Z,28.8332,-90.8320,10.0,9.87,33.0,,'11111222,11111222,99999999' 
WAVCIS,ioos:station:WAVCIS:CSI15:1,2009-11-06T21:00:00Z,28.8332,-90.8320,10.0,9.14,39.0,,'11111222,11111222,99999999' 
WAVCIS,ioos:station:WAVCIS:CSI15:1,2009-11-06T22:00:00Z,28.8332,-90.8320,10.0,9.46,39.0,,'11111222,11111222,99999999' 
WAVCIS,ioos:station:WAVCIS:CSI15:1,2009-11-06T23:00:00Z,28.8332,-90.8320,10.0,8.87,36.0,,'11111222,11111222,99999999' 
WAVCIS,ioos:station:WAVCIS:CSI15:1,2009-11-07T00:00:00Z,28.8332,-90.8320,10.0,9.4,40.0,,'11111222,11111222,99999999' 
WAVCIS,ioos:station:WAVCIS:CSI15:1,2009-11-07T01:00:00Z,28.8332,-90.8320,10.0,8.9,48.0,,'11111222,11111222,99999999' 
WAVCIS,ioos:station:WAVCIS:CSI15:1,2009-11-07T02:00:00Z,28.8332,-90.8320,10.0,9.16,54.0,,'11111222,11111222,99999999' 
WAVCIS,ioos:station:WAVCIS:CSI15:1,2009-11-07T03:00:00Z,28.8332,-90.8320,10.0,9.22,64.0,,'11111222,11111222,99999999' 
WAVCIS,ioos:station:WAVCIS:CSI15:1,2009-11-07T04:00:00Z,28.8332,-90.8320,10.0,9.04,59.0,,'11111222,11111222,99999999' 
WAVCIS,ioos:station:WAVCIS:CSI15:1,2009-11-07T05:00:00Z,28.8332,-90.8320,10.0,9.11,70.0,,'11111222,11111222,99999999' 
WAVCIS,ioos:station:WAVCIS:CSI15:1,2009-11-07T06:00:00Z,28.8332,-90.8320,10.0,7.66,73.0,,'11111222,11111222,99999999' 
WAVCIS,ioos:station:WAVCIS:CSI15:1,2009-11-07T07:00:00Z,28.8332,-90.8320,10.0,7.84,72.0,,'11111222,11111222,99999999' 
WAVCIS,ioos:station:WAVCIS:CSI15:1,2009-11-07T08:00:00Z,28.8332,-90.8320,10.0,7.13,78.0,,'11111222,11111222,99999999' 
WAVCIS,ioos:station:WAVCIS:CSI15:1,2009-11-07T09:00:00Z,28.8332,-90.8320,10.0,6.29,79.0,,'11111222,11111222,99999999' 
WAVCIS,ioos:station:WAVCIS:CSI15:1,2009-11-07T10:00:00Z,28.8332,-90.8320,10.0,6.315,79.0,,'11111222,11111222,99999999' 
WAVCIS,ioos:station:WAVCIS:CSI15:1,2009-11-07T11:00:00Z,28.8332,-90.8320,10.0,7.0,77.0,,'11111222,11111222,99999999' 
WAVCIS,ioos:station:WAVCIS:CSI15:1,2009-11-07T12:00:00Z,28.8332,-90.8320,10.0,7.81,80.0,,'11111222,11111222,99999999' 
WAVCIS,ioos:station:WAVCIS:CSI15:1,2009-11-07T13:00:00Z,28.8332,-90.8320,10.0,5.004,71.0,,'11111222,11111222,99999999' 
WAVCIS,ioos:station:WAVCIS:CSI15:1,2009-11-07T14:00:00Z,28.8332,-90.8320,10.0,5.528,31.0,,'11111222,11111222,99999999' 
WAVCIS,ioos:station:WAVCIS:CSI15:1,2009-11-07T15:00:00Z,28.8332,-90.8320,10.0,7.32,22.0,,'11111222,11111222,99999999' 
WAVCIS,ioos:station:WAVCIS:CSI15:1,2009-11-07T16:00:00Z,28.8332,-90.8320,10.0,8.01,29.0,,'11111222,11111222,99999999' 
WAVCIS,ioos:station:WAVCIS:CSI15:1,2009-11-07T17:00:00Z,28.8332,-90.8320,10.0,8.57,37.0,,'11111222,11111222,99999999' 
WAVCIS,ioos:station:WAVCIS:CSI15:1,2009-11-07T18:00:00Z,28.8332,-90.8320,10.0,8.48,41.0,,'11111222,11111222,99999999' 
WAVCIS,ioos:station:WAVCIS:CSI15:1,2009-11-07T19:00:00Z,28.8332,-90.8320,10.0,8.33,44.0,,'11111222,11111222,99999999' 
WAVCIS,ioos:station:WAVCIS:CSI15:1,2009-11-07T20:00:00Z,28.8332,-90.8320,10.0,10.06,37.0,,'11111222,11111222,99999999' 
WAVCIS,ioos:station:WAVCIS:CSI15:1,2009-11-07T21:00:00Z,28.8332,-90.8320,10.0,9.77,36.0,,'11111222,11111222,99999999' 
WAVCIS,ioos:station:WAVCIS:CSI15:1,2009-11-07T22:00:00Z,28.8332,-90.8320,10.0,9.58,37.0,,'11111222,11111222,99999999' 
WAVCIS,ioos:station:WAVCIS:CSI15:1,2009-11-07T23:00:00Z,28.8332,-90.8320,10.0,9.88,39.0,,'11111222,11111222,99999999' 
WAVCIS,ioos:station:WAVCIS:CSI15:1,2009-11-08T00:00:00Z,28.8332,-90.8320,10.0,9.58,39.0,,'11111222,11111222,99999999' 
WAVCIS,ioos:station:WAVCIS:CSI15:1,2009-11-08T01:00:00Z,28.8332,-90.8320,10.0,9.89,38.0,,'11111222,11111222,99999999' 
WAVCIS,ioos:station:WAVCIS:CSI15:1,2009-11-08T02:00:00Z,28.8332,-90.8320,10.0,9.15,38.0,,'11111222,11111222,99999999' 
WAVCIS,ioos:station:WAVCIS:CSI15:1,2009-11-08T03:00:00Z,28.8332,-90.8320,10.0,9.21,39.0,,'11111222,11111222,99999999' 
WAVCIS,ioos:station:WAVCIS:CSI15:1,2009-11-08T04:00:00Z,28.8332,-90.8320,10.0,9.15,45.0,,'11111222,11111222,99999999' 
WAVCIS,ioos:station:WAVCIS:CSI15:1,2009-11-08T05:00:00Z,28.8332,-90.8320,10.0,10.09,49.0,,'11111222,11111222,99999999' 
WAVCIS,ioos:station:WAVCIS:CSI15:1,2009-11-08T06:00:00Z,28.8332,-90.8320,10.0,9.78,62.0,,'11111222,11111222,99999999' 
WAVCIS,ioos:station:WAVCIS:CSI15:1,2009-11-08T07:00:00Z,28.8332,-90.8320,10.0,10.93,59.0,,'11111222,11111222,99999999' 
WAVCIS,ioos:station:WAVCIS:CSI15:1,2009-11-08T08:00:00Z,28.8332,-90.8320,10.0,9.83,63.0,,'11111222,11111222,99999999' 
WAVCIS,ioos:station:WAVCIS:CSI15:1,2009-11-08T09:00:00Z,28.8332,-90.8320,10.0,8.49,61.0,,'11111222,11111222,99999999' 
WAVCIS,ioos:station:WAVCIS:CSI15:1,2009-11-08T10:00:00Z,28.8332,-90.8320,10.0,7.52,37.0,,'11111222,11111222,99999999' 
WAVCIS,ioos:station:WAVCIS:CSI15:1,2009-11-08T11:00:00Z,28.8332,-90.8320,10.0,7.79,35.0,,'11111222,11111222,99999999' 
WAVCIS,ioos:station:WAVCIS:CSI15:1,2009-11-08T12:00:00Z,28.8332,-90.8320,10.0,7.37,38.0,,'11111222,11111222,99999999' 
WAVCIS,ioos:station:WAVCIS:CSI15:1,2009-11-08T13:00:00Z,28.8332,-90.8320,10.0,9.84,53.0,,'11111222,11111222,99999999' 
WAVCIS,ioos:station:WAVCIS:CSI15:1,2009-11-08T14:00:00Z,28.8332,-90.8320,10.0,8.75,38.0,,'11111222,11111222,99999999' 
WAVCIS,ioos:station:WAVCIS:CSI15:1,2009-11-08T15:00:00Z,28.8332,-90.8320,10.0,9.78,31.0,,'11111222,11111222,99999999' 
WAVCIS,ioos:station:WAVCIS:CSI15:1,2009-11-08T16:00:00Z,28.8332,-90.8320,10.0,10.44,33.0,,'11111222,11111222,99999999' 
WAVCIS,ioos:station:WAVCIS:CSI15:1,2009-11-08T17:00:00Z,28.8332,-90.8320,10.0,10.98,35.0,,'11111222,11111222,99999999' 
WAVCIS,ioos:station:WAVCIS:CSI15:1,2009-11-08T18:00:00Z,28.8332,-90.8320,10.0,10.91,33.0,,'11111222,11111222,99999999' 
WAVCIS,ioos:station:WAVCIS:CSI15:1,2009-11-08T19:00:00Z,28.8332,-90.8320,10.0,9.98,32.0,,'11111222,11111222,99999999' 
WAVCIS,ioos:station:WAVCIS:CSI15:1,2009-11-08T20:00:00Z,28.8332,-90.8320,10.0,10.2,36.0,,'11111222,11111222,99999999' 
WAVCIS,ioos:station:WAVCIS:CSI15:1,2009-11-08T21:00:00Z,28.8332,-90.8320,10.0,11.12,36.0,,'11111222,11111222,99999999' 
WAVCIS,ioos:station:WAVCIS:CSI15:1,2009-11-08T22:00:00Z,28.8332,-90.8320,10.0,11.19,34.0,,'11111222,11111222,99999999' 
WAVCIS,ioos:station:WAVCIS:CSI15:1,2009-11-08T23:00:00Z,28.8332,-90.8320,10.0,10.72,46.0,,'11111222,11111222,99999999' 
WAVCIS,ioos:station:WAVCIS:CSI15:1,2009-11-09T00:00:00Z,28.8332,-90.8320,10.0,11.41,30.0,,'11111222,11111222,99999999' 
WAVCIS,ioos:station:WAVCIS:CSI15:1,2009-11-09T01:00:00Z,28.8332,-90.8320,10.0,9.81,29.0,,'11111222,11111222,99999999' 
WAVCIS,ioos:station:WAVCIS:CSI15:1,2009-11-09T02:00:00Z,28.8332,-90.8320,10.0,10.99,29.0,,'11111222,11111222,99999999' 
WAVCIS,ioos:station:WAVCIS:CSI15:1,2009-11-09T03:00:00Z,28.8332,-90.8320,10.0,9.78,27.0,,'11111222,11111222,99999999' 
WAVCIS,ioos:station:WAVCIS:CSI15:1,2009-11-09T04:00:00Z,28.8332,-90.8320,10.0,9.71,29.0,,'11111222,11111222,99999999' 
WAVCIS,ioos:station:WAVCIS:CSI15:1,2009-11-09T05:00:00Z,28.8332,-90.8320,10.0,10.09,25.0,,'11111222,11111222,99999999' 
WAVCIS,ioos:station:WAVCIS:CSI15:1,2009-11-09T06:00:00Z,28.8332,-90.8320,10.0,9.63,19.0,,'11111222,11111222,99999999' 
WAVCIS,ioos:station:WAVCIS:CSI15:1,2009-11-09T07:00:00Z,28.8332,-90.8320,10.0,9.45,30.0,,'11111222,11111222,99999999' 